Showing default

EXPLORER 31 (ISIS-X), 1806

Orbit data source: Space-Track

EXPLORER 31 (ISIS-X), 1806 is a payload satellite owned by GSFC (US) in LEO that was launched on Mon, 29 Nov 1965 UTC via a THOR SLV-2 AGENA B launch vehicle from the Air Force Western Test Range (AFWTR). Payload-class satellites include a variety of spacecraft equipped with specific instruments for various scientific and technological missions. These include communications satellites like Starlink; space stations such as the ISS; scientific satellites like the Hubble; Earth observation satellites from companies like Planet Labs, Umbra, and HawkEye 360; GPS; miniature CubeSats for education and research; and military/defense satellites.

Loading next visibility...
Identifier
1806, 1965-098B
Orbit
LEO
Country
Flag of USUS
Related business
Manufacturer
APL
Mission
Spacecraft
Bus & Motor
DME, Unknown motor
Mass
98 kg wet, 98 kg dry
Launch date (UTC)
1965-11-29 (60 years ago)
Launch vehicle
THOR SLV-2 AGENA B
Launch site
Air Force Western Test Range (AFWTR)
Object type
Payload
Rocket body
Debris
Shape & HBR
Unknown
Radar Cross Section
Medium (>0.1 m² and <1 m²)

Expand to show TLE details & history
Last TLE update: 14 hours ago

TLE from 14 hours ago
0 EXPLORER 31 (ISIS-X)
1  1806U 65098B   25312.60639426 -.00000222  00000-0 -78820-4 0  9999
2  1806  79.7795 171.7252 1423670 206.8230 145.1827 12.08105542622051
Epoch: 2025-11-08T14:33Z
TLE epoch observation values (Epoch: 2025-11-08T14:33:12.464Z)
Latitude
Longitude
-94.61032°
Altitude
2,630.044 km
Speed
6.232 km/s
True Right ascension
11h 26m 54s
True Declination
0° 00' 00"
Sunlit
Object was in daylight at epoch
Visualization orbit readout
Latitude
Unknown
Longitude
Unknown
Altitude
Unknown
Speed
Unknown
Apparent Right ascension
Unknown
Apparent Declination
Unknown
Sunlit
N/A
Visualization observer readout
Local Sidereal Time
01:03:12
Azimuth
Unknown
Elevation
Unknown
Doppler factor
Unknown
Orbital elements
Apogee altitude
2,784.049 km
Perigee altitude
500.382 km
Semi-major axis
8,020.353 km
Eccentricity
0.14237
Inclination
79.7795°
RAAN
171.7252°
Arg. of periapsis
206.823°
True anomaly
153.27878°
Mean anomaly
145.1827°
Eccentric anomaly
149.34206°
Mean motion
3.02171 °/min
Orbital period
119.14 mins
BSTAR
-0.00007882
Loading maneuver chart data...
Computing Atmospheric mass density...
Loading historical data...
Loading historical data...
Loading historical data...
Loading historical data...
Loading historical data...
Loading historical data...
Loading historical data...

Documentation

Showing up to 5 results
|